SYR383 OSDI-OEJN

Flight info

Callsign SYR383
Flight time N/A
Altitude 35000
Route BUSRA G662 ASH B544 HLF V172 RBG B544 NOMDA
Aircraft B739/M-SDE2E3FGHIRWXY/LB1

Departure

Time 2026-05-06 10:05
Airport Damascus International Airport (OSDI)

Arrival

Time N/A
Airport King Abdulaziz International Airport (OEJN)
Time Latitude Longitude Altitude Speed Heading
2026-05-06 09:42 33.41152 36.51567 2033 ft 0 kts 199°
2026-05-06 09:44 33.41147 36.51565 2033 ft 0 kts 199°
2026-05-06 09:52 33.41136 36.51572 2040 ft 3 kts 127°
2026-05-06 09:52 33.41129 36.51594 2040 ft 3 kts 109°
2026-05-06 09:52 33.41123 36.51620 2034 ft 3 kts 107°
2026-05-06 09:53 33.41116 36.51646 2032 ft 3 kts 107°
2026-05-06 09:53 33.41108 36.51671 2040 ft 3 kts 121°
2026-05-06 09:53 33.41096 36.51696 2037 ft 4 kts 121°
2026-05-06 09:53 33.41076 36.51756 2030 ft 9 kts 105°
2026-05-06 09:54 33.41068 36.51837 2029 ft 10 kts 73°
2026-05-06 09:54 33.41102 36.51911 2029 ft 10 kts 56°
2026-05-06 09:54 33.41129 36.51987 2029 ft 10 kts 95°
2026-05-06 09:54 33.41090 36.52056 2028 ft 10 kts 142°
2026-05-06 09:55 33.41034 36.52103 2029 ft 10 kts 139°
2026-05-06 09:55 33.40984 36.52156 2026 ft 10 kts 138°
2026-05-06 09:55 33.40935 36.52208 2026 ft 9 kts 138°
2026-05-06 09:55 33.40887 36.52258 2029 ft 9 kts 138°
2026-05-06 09:56 33.40842 36.52308 2031 ft 9 kts 142°
2026-05-06 09:56 33.40794 36.52351 2025 ft 9 kts 143°
2026-05-06 09:56 33.40749 36.52396 2032 ft 8 kts 139°
2026-05-06 09:56 33.40705 36.52387 2027 ft 8 kts 254°
2026-05-06 09:57 33.40696 36.52321 2032 ft 8 kts 261°
2026-05-06 09:57 33.40674 36.52248 2032 ft 11 kts 233°
2026-05-06 09:57 33.40611 36.52163 2031 ft 16 kts 228°
2026-05-06 09:57 33.40536 36.52059 2030 ft 16 kts 229°
2026-05-06 09:58 33.40465 36.51957 2029 ft 16 kts 230°
2026-05-06 09:58 33.40393 36.51862 2031 ft 15 kts 227°
2026-05-06 09:58 33.40324 36.51771 2034 ft 14 kts 228°
2026-05-06 09:58 33.40259 36.51684 2032 ft 14 kts 228°
2026-05-06 09:59 33.40197 36.51600 2030 ft 13 kts 229°
2026-05-06 09:59 33.40137 36.51518 2039 ft 13 kts 229°
2026-05-06 09:59 33.40074 36.51434 2031 ft 13 kts 228°
2026-05-06 09:59 33.40013 36.51352 2034 ft 13 kts 229°
2026-05-06 10:00 33.39955 36.51272 2040 ft 13 kts 229°
2026-05-06 10:00 33.39888 36.51184 2039 ft 19 kts 228°
2026-05-06 10:00 33.39772 36.51029 2040 ft 26 kts 229°
2026-05-06 10:00 33.39645 36.50857 2038 ft 25 kts 228°
2026-05-06 10:01 33.39536 36.50710 2035 ft 23 kts 228°
2026-05-06 10:01 33.39431 36.50570 2043 ft 22 kts 229°
2026-05-06 10:01 33.39329 36.50432 2040 ft 22 kts 228°
2026-05-06 10:01 33.39225 36.50290 2037 ft 24 kts 229°
2026-05-06 10:02 33.39110 36.50131 2042 ft 26 kts 230°
2026-05-06 10:02 33.38989 36.49956 2041 ft 28 kts 231°
2026-05-06 10:02 33.38862 36.49769 2043 ft 30 kts 231°
2026-05-06 10:02 33.38724 36.49592 2048 ft 24 kts 218°
2026-05-06 10:03 33.38578 36.49511 2046 ft 17 kts 161°
2026-05-06 10:03 33.38501 36.49605 2042 ft 12 kts 84°
2026-05-06 10:03 33.38508 36.49626 2042 ft 3 kts 62°
2026-05-06 10:03 33.38524 36.49662 2043 ft 8 kts 62°
2026-05-06 10:04 33.38612 36.49768 2048 ft 47 kts 44°
2026-05-06 10:04 33.39003 36.50286 2042 ft 118 kts 48°
2026-05-06 10:04 33.39690 36.51198 2046 ft 173 kts 45°
2026-05-06 10:04 33.40545 36.52286 2475 ft 184 kts 46°
2026-05-06 10:05 33.41421 36.53401 2901 ft 189 kts 46°
2026-05-06 10:05 33.42296 36.54512 3654 ft 175 kts 46°
2026-05-06 10:05 33.43159 36.55557 4273 ft 179 kts 44°
2026-05-06 10:05 33.44165 36.56592 4421 ft 203 kts 36°
2026-05-06 10:06 33.45465 36.57399 4594 ft 222 kts 13°
2026-05-06 10:06 33.47025 36.57269 4745 ft 238 kts 330°
2026-05-06 10:06 33.48193 36.55862 5050 ft 246 kts 290°
2026-05-06 10:06 33.48339 36.53862 5652 ft 244 kts 252°
2026-05-06 10:07 33.47416 36.52186 6266 ft 246 kts 215°
2026-05-06 10:07 33.45813 36.51526 6912 ft 249 kts 185°
2026-05-06 10:07 33.44079 36.51353 7517 ft 252 kts 190°
2026-05-06 10:07 33.42384 36.50795 8035 ft 258 kts 208°
2026-05-06 10:08 33.40957 36.49419 8368 ft 271 kts 222°
2026-05-06 10:08 33.39312 36.48296 8989 ft 275 kts 203°
2026-05-06 10:08 33.37557 36.47392 9671 ft 275 kts 207°
2026-05-06 10:08 33.35859 36.46409 10043 ft 275 kts 207°
2026-05-06 10:09 33.34107 36.45390 10061 ft 283 kts 207°
2026-05-06 10:09 33.32341 36.44363 10079 ft 281 kts 207°
2026-05-06 10:09 33.30588 36.43345 10066 ft 278 kts 207°
2026-05-06 10:09 33.28856 36.42339 10077 ft 276 kts 207°
2026-05-06 10:10 33.27132 36.41337 10074 ft 274 kts 207°
2026-05-06 10:10 33.25419 36.40342 10082 ft 273 kts 207°
2026-05-06 10:10 33.23706 36.39348 10089 ft 274 kts 207°
2026-05-06 10:10 33.21994 36.38354 10093 ft 275 kts 207°
2026-05-06 10:11 33.20271 36.37352 10089 ft 276 kts 207°
2026-05-06 10:11 33.18542 36.36348 10093 ft 279 kts 207°
2026-05-06 10:11 33.16725 36.35290 10116 ft 303 kts 207°
2026-05-06 10:11 33.14780 36.34151 10109 ft 328 kts 207°
2026-05-06 10:12 33.12658 36.32903 10116 ft 350 kts 207°
2026-05-06 10:12 33.10359 36.31878 10082 ft 357 kts 189°
2026-05-06 10:12 33.07844 36.32113 10099 ft 365 kts 163°
2026-05-06 10:12 33.05685 36.33641 10281 ft 373 kts 137°
2026-05-06 10:13 33.04233 36.36247 10714 ft 386 kts 113°
2026-05-06 10:13 33.03427 36.39306 11310 ft 390 kts 107°
2026-05-06 10:13 33.03011 36.42527 11764 ft 399 kts 94°
2026-05-06 10:13 33.02927 36.45849 12253 ft 403 kts 98°
2026-05-06 10:14 33.02277 36.49080 12691 ft 403 kts 117°
2026-05-06 10:14 33.00686 36.51767 13192 ft 395 kts 142°
2026-05-06 10:14 32.98392 36.53452 13761 ft 385 kts 163°
2026-05-06 10:14 32.95810 36.54248 14225 ft 381 kts 178°
2026-05-06 10:15 32.93182 36.54575 14853 ft 378 kts 177°
2026-05-06 10:15 32.90571 36.54947 15163 ft 386 kts 180°
2026-05-06 10:15 32.87864 36.55171 15498 ft 392 kts 181°
2026-05-06 10:15 32.85127 36.55357 15965 ft 394 kts 181°
2026-05-06 10:16 32.82381 36.55574 16444 ft 397 kts 181°
2026-05-06 10:16 32.79613 36.55830 16888 ft 400 kts 180°
2026-05-06 10:16 32.76818 36.56116 17325 ft 404 kts 180°
2026-05-06 10:16 32.74013 36.56413 17757 ft 407 kts 180°
2026-05-06 10:17 32.71172 36.56716 18137 ft 411 kts 180°
2026-05-06 10:17 32.68341 36.57061 18494 ft 415 kts 179°
2026-05-06 10:17 32.65465 36.57443 18856 ft 418 kts 179°
2026-05-06 10:17 32.62563 36.57838 19240 ft 419 kts 179°
2026-05-06 10:18 32.59655 36.58232 19604 ft 422 kts 179°
2026-05-06 10:18 32.56722 36.58625 19961 ft 424 kts 180°
2026-05-06 10:18 32.53782 36.59014 20324 ft 427 kts 180°
2026-05-06 10:18 32.50860 36.59398 20687 ft 429 kts 180°
2026-05-06 10:19 32.47885 36.59789 21054 ft 431 kts 180°
2026-05-06 10:19 32.44896 36.60181 21420 ft 433 kts 180°
2026-05-06 10:19 32.41886 36.60575 21770 ft 436 kts 180°
2026-05-06 10:19 32.38860 36.60971 22106 ft 438 kts 180°
2026-05-06 10:20 32.36812 36.61246 22335 ft 441 kts 179°
2026-05-06 10:20 32.33808 36.62019 22642 ft 452 kts 169°
2026-05-06 10:20 32.30844 36.63414 22972 ft 463 kts 159°
2026-05-06 10:20 32.28043 36.65363 23283 ft 470 kts 154°
2026-05-06 10:21 32.25280 36.67466 23580 ft 474 kts 153°
2026-05-06 10:21 32.22509 36.69582 23830 ft 475 kts 153°
2026-05-06 10:21 32.19714 36.71681 24119 ft 476 kts 154°
2026-05-06 10:21 32.16929 36.73735 24413 ft 477 kts 154°
2026-05-06 10:22 32.14104 36.75802 24696 ft 478 kts 155°
2026-05-06 10:22 32.11256 36.77839 25011 ft 478 kts 156°
2026-05-06 10:22 32.08393 36.79839 25281 ft 479 kts 156°
2026-05-06 10:22 32.05508 36.81836 25532 ft 481 kts 156°
2026-05-06 10:23 32.02623 36.83833 25769 ft 483 kts 156°
2026-05-06 10:23 31.99723 36.85846 26012 ft 484 kts 156°
2026-05-06 10:23 31.96815 36.87870 26273 ft 486 kts 156°
2026-05-06 10:23 31.93916 36.89892 26518 ft 487 kts 156°
2026-05-06 10:24 31.91002 36.91924 26801 ft 487 kts 156°
2026-05-06 10:24 31.88079 36.93961 27049 ft 489 kts 156°
2026-05-06 10:24 31.85144 36.96004 27268 ft 491 kts 156°
2026-05-06 10:24 31.82197 36.98052 27492 ft 492 kts 156°
2026-05-06 10:25 31.79264 37.00144 27769 ft 494 kts 154°
2026-05-06 10:25 31.76422 37.02303 28227 ft 491 kts 153°
2026-05-06 10:25 31.73582 37.04515 28659 ft 488 kts 153°
2026-05-06 10:25 31.70749 37.06724 29000 ft 488 kts 153°
2026-05-06 10:26 31.67910 37.08917 29318 ft 488 kts 154°
2026-05-06 10:26 31.65071 37.11091 29630 ft 487 kts 154°
2026-05-06 10:26 31.62239 37.13249 30025 ft 485 kts 154°
2026-05-06 10:26 31.59403 37.15404 30370 ft 483 kts 154°
2026-05-06 10:27 31.56613 37.17522 30668 ft 482 kts 154°
2026-05-06 10:27 31.53800 37.19651 30957 ft 481 kts 155°
2026-05-06 10:27 31.50970 37.21722 31258 ft 479 kts 156°
2026-05-06 10:27 31.48138 37.23757 31549 ft 477 kts 156°
2026-05-06 10:28 31.45312 37.25791 31852 ft 476 kts 156°
2026-05-06 10:28 31.42498 37.27845 32134 ft 477 kts 154°
2026-05-06 10:28 31.39848 37.30231 32361 ft 487 kts 144°
2026-05-06 10:28 31.37442 37.33049 32618 ft 490 kts 141°
2026-05-06 10:29 31.35094 37.35924 32852 ft 489 kts 141°
2026-05-06 10:29 31.32748 37.38807 33103 ft 488 kts 141°
2026-05-06 10:29 31.30393 37.41672 33350 ft 487 kts 141°
2026-05-06 10:29 31.28034 37.44508 33576 ft 486 kts 142°
2026-05-06 10:30 31.25663 37.47334 33815 ft 485 kts 142°
2026-05-06 10:30 31.23300 37.50138 34083 ft 483 kts 142°
2026-05-06 10:30 31.20945 37.52929 34320 ft 481 kts 142°
2026-05-06 10:30 31.18627 37.55675 34470 ft 481 kts 142°
2026-05-06 10:31 31.16272 37.58463 34586 ft 482 kts 142°
2026-05-06 10:31 31.13913 37.61257 34721 ft 483 kts 142°
2026-05-06 10:31 31.11561 37.64041 34892 ft 482 kts 142°
2026-05-06 10:31 31.09208 37.66826 35052 ft 482 kts 142°
2026-05-06 10:32 31.04486 37.72407 35062 ft 483 kts 143°
2026-05-06 10:32 30.99782 37.77965 35080 ft 480 kts 143°
2026-05-06 10:33 30.95100 37.83488 35082 ft 477 kts 143°
2026-05-06 10:33 30.90436 37.88979 35083 ft 476 kts 143°
2026-05-06 10:34 30.85776 37.94455 35094 ft 475 kts 143°
2026-05-06 10:34 30.81111 37.99929 35090 ft 476 kts 143°
2026-05-06 10:35 30.76436 38.05407 35087 ft 478 kts 143°
2026-05-06 10:35 30.71737 38.10907 35093 ft 479 kts 143°
2026-05-06 10:36 30.67054 38.16380 35092 ft 481 kts 143°
2026-05-06 10:36 30.62327 38.21897 35083 ft 481 kts 143°
2026-05-06 10:37 30.57605 38.27402 35086 ft 480 kts 143°
2026-05-06 10:37 30.52897 38.32882 35090 ft 479 kts 143°
2026-05-06 10:38 30.48181 38.38362 35094 ft 478 kts 143°
2026-05-06 10:38 30.43484 38.43811 35095 ft 477 kts 143°
2026-05-06 10:39 30.38797 38.49242 35097 ft 476 kts 143°
2026-05-06 10:39 30.34109 38.54665 35097 ft 475 kts 143°
2026-05-06 10:40 30.29437 38.60062 35101 ft 475 kts 143°
2026-05-06 10:40 30.24755 38.65464 35095 ft 475 kts 143°
2026-05-06 10:41 30.20109 38.70818 35098 ft 474 kts 143°
2026-05-06 10:41 30.15419 38.76177 35099 ft 472 kts 147°
2026-05-06 10:42 30.12808 38.78354 35100 ft 455 kts 161°
2026-05-06 10:42 30.09953 38.79811 35111 ft 443 kts 171°
2026-05-06 10:42 30.06997 38.80634 35098 ft 431 kts 181°
2026-05-06 10:42 30.04021 38.80989 35116 ft 430 kts 182°
2026-05-06 10:43 29.98042 38.81705 35105 ft 432 kts 181°
2026-05-06 10:44 29.89038 38.82861 35102 ft 435 kts 181°
2026-05-06 10:44 29.83060 38.83649 35107 ft 435 kts 181°
2026-05-06 10:45 29.77036 38.84444 35102 ft 435 kts 181°
2026-05-06 10:45 29.71009 38.85237 35089 ft 435 kts 181°
2026-05-06 10:46 29.65009 38.86025 35105 ft 433 kts 181°
2026-05-06 10:46 29.59019 38.86810 35104 ft 432 kts 181°
2026-05-06 10:47 29.53046 38.87592 35107 ft 431 kts 181°
2026-05-06 10:47 29.47092 38.88370 35108 ft 430 kts 181°
2026-05-06 10:48 29.41140 38.89147 35109 ft 430 kts 181°
2026-05-06 10:48 29.35202 38.89922 35109 ft 429 kts 181°
2026-05-06 10:49 29.29311 38.90692 35109 ft 429 kts 181°
2026-05-06 10:49 29.23377 38.91478 35103 ft 428 kts 181°
2026-05-06 10:50 29.17444 38.92263 35104 ft 428 kts 181°
2026-05-06 10:50 29.11530 38.93043 35112 ft 428 kts 181°
2026-05-06 10:51 29.05597 38.93812 35107 ft 429 kts 181°
2026-05-06 10:51 28.99698 38.94567 35095 ft 429 kts 182°
2026-05-06 10:52 28.93761 38.95328 35103 ft 429 kts 182°
2026-05-06 10:52 28.87812 38.96091 35104 ft 430 kts 182°
2026-05-06 10:53 28.81870 38.96852 35108 ft 430 kts 182°
2026-05-06 10:53 28.75930 38.97613 35094 ft 429 kts 182°
2026-05-06 10:54 28.69990 38.98372 35098 ft 429 kts 182°
2026-05-06 10:54 28.64062 38.99129 35104 ft 429 kts 182°
2026-05-06 10:55 28.58128 38.99886 35098 ft 429 kts 182°
2026-05-06 10:55 28.52241 39.00636 35084 ft 428 kts 182°
2026-05-06 10:56 28.46324 39.01389 35093 ft 428 kts 182°
2026-05-06 10:56 28.40406 39.02141 35097 ft 428 kts 182°
2026-05-06 10:57 28.34494 39.02892 35088 ft 427 kts 182°
2026-05-06 10:57 28.28580 39.03642 35069 ft 427 kts 182°
2026-05-06 10:58 28.22675 39.04390 35072 ft 427 kts 182°
2026-05-06 10:58 28.16775 39.05137 35087 ft 427 kts 182°
2026-05-06 10:59 28.10869 39.05883 35075 ft 427 kts 182°
2026-05-06 10:59 28.05000 39.06624 35043 ft 427 kts 182°
2026-05-06 11:00 27.99093 39.07370 35065 ft 426 kts 182°
2026-05-06 11:00 27.93190 39.08114 35074 ft 426 kts 182°
2026-05-06 11:01 27.87298 39.08860 35065 ft 426 kts 182°
2026-05-06 11:01 27.81445 39.09603 35048 ft 426 kts 182°
2026-05-06 11:02 27.75542 39.10353 35061 ft 426 kts 182°
2026-05-06 11:02 27.69650 39.11099 35058 ft 426 kts 182°
2026-05-06 11:03 27.63757 39.11844 35066 ft 426 kts 182°
2026-05-06 11:03 27.57875 39.12588 35017 ft 424 kts 182°
2026-05-06 11:04 27.52044 39.13325 35033 ft 424 kts 182°
2026-05-06 11:04 27.46169 39.14065 35049 ft 425 kts 182°
2026-05-06 11:05 27.40290 39.14804 35030 ft 425 kts 182°
2026-05-06 11:05 27.34404 39.15545 35030 ft 426 kts 182°
2026-05-06 11:06 27.29514 39.16160 35026 ft 425 kts 182°
2026-05-06 11:06 27.23625 39.16900 35031 ft 426 kts 182°
2026-05-06 11:07 27.17730 39.17639 35036 ft 426 kts 182°
2026-05-06 11:07 27.11824 39.18379 35029 ft 427 kts 182°
2026-05-06 11:08 27.05915 39.19119 35032 ft 428 kts 182°
2026-05-06 11:08 26.99983 39.19861 35026 ft 428 kts 182°
2026-05-06 11:09 26.94110 39.20595 35024 ft 428 kts 182°
2026-05-06 11:09 26.88195 39.21334 35023 ft 427 kts 182°
2026-05-06 11:10 26.82282 39.22071 35001 ft 427 kts 182°
2026-05-06 11:10 26.76383 39.22806 35009 ft 426 kts 182°
2026-05-06 11:11 26.70521 39.23535 35012 ft 426 kts 182°
2026-05-06 11:11 26.64631 39.24267 35009 ft 426 kts 182°
2026-05-06 11:12 26.58727 39.25000 34977 ft 426 kts 182°
2026-05-06 11:12 26.52828 39.25731 34997 ft 427 kts 182°
2026-05-06 11:13 26.46923 39.26463 35006 ft 427 kts 182°
2026-05-06 11:13 26.41023 39.26899 34998 ft 419 kts 190°
2026-05-06 11:14 26.35193 39.26579 34978 ft 420 kts 191°
2026-05-06 11:14 26.29359 39.26243 34991 ft 421 kts 190°
2026-05-06 11:15 26.23511 39.25941 34981 ft 421 kts 190°
2026-05-06 11:15 26.17684 39.25657 34995 ft 422 kts 190°
2026-05-06 11:16 26.11807 39.25377 34966 ft 422 kts 190°
2026-05-06 11:16 26.05948 39.25096 34981 ft 422 kts 190°
2026-05-06 11:17 26.00094 39.24780 34955 ft 420 kts 190°
2026-05-06 11:17 25.94265 39.24517 34973 ft 418 kts 190°
2026-05-06 11:18 25.88476 39.24257 34953 ft 420 kts 190°
2026-05-06 11:18 25.82632 39.23980 34968 ft 421 kts 190°
2026-05-06 11:19 25.76751 39.23698 34983 ft 423 kts 190°
2026-05-06 11:19 25.70858 39.23416 34970 ft 424 kts 190°
2026-05-06 11:20 25.64960 39.23130 34954 ft 424 kts 191°
2026-05-06 11:20 25.59074 39.22843 34972 ft 423 kts 191°
2026-05-06 11:21 25.53227 39.22559 34974 ft 423 kts 191°
2026-05-06 11:21 25.47352 39.22273 34974 ft 422 kts 191°
2026-05-06 11:22 25.41482 39.21989 34962 ft 422 kts 191°
2026-05-06 11:22 25.35627 39.21706 34970 ft 420 kts 191°
2026-05-06 11:23 25.29784 39.21423 34966 ft 419 kts 191°
2026-05-06 11:23 25.23993 39.21143 34971 ft 419 kts 191°
2026-05-06 11:24 25.18165 39.20861 34970 ft 419 kts 191°
2026-05-06 11:24 25.12353 39.20581 34961 ft 418 kts 191°
2026-05-06 11:25 25.06524 39.20299 34952 ft 419 kts 191°
2026-05-06 11:25 25.00686 39.20017 34946 ft 420 kts 191°
2026-05-06 11:26 24.94827 39.19735 34942 ft 421 kts 191°
2026-05-06 11:26 24.88959 39.19454 34925 ft 421 kts 191°
2026-05-06 11:27 24.83104 39.19172 34934 ft 421 kts 191°
2026-05-06 11:27 24.77241 39.18892 34935 ft 422 kts 191°
2026-05-06 11:28 24.71365 39.18612 34926 ft 422 kts 191°
2026-05-06 11:28 24.65537 39.18335 34929 ft 421 kts 191°
2026-05-06 11:29 24.59678 39.18056 34921 ft 421 kts 191°
2026-05-06 11:29 24.53824 39.17780 34925 ft 421 kts 191°
2026-05-06 11:30 24.47965 39.17511 34934 ft 421 kts 191°
2026-05-06 11:30 24.42109 39.17243 34923 ft 422 kts 191°
2026-05-06 11:31 24.36279 39.16977 34932 ft 422 kts 191°
2026-05-06 11:31 24.30408 39.16708 34940 ft 422 kts 191°
2026-05-06 11:32 24.24543 39.16440 34941 ft 421 kts 191°
2026-05-06 11:32 24.19083 39.16209 34927 ft 415 kts 191°
2026-05-06 11:33 24.13295 39.15938 34982 ft 419 kts 191°
2026-05-06 11:33 24.07437 39.15658 34947 ft 423 kts 191°
2026-05-06 11:34 24.01530 39.15386 34937 ft 428 kts 191°
2026-05-06 11:34 23.95578 39.15117 34929 ft 426 kts 191°
2026-05-06 11:35 23.89702 39.14853 34947 ft 424 kts 191°
2026-05-06 11:35 23.83798 39.14579 34936 ft 424 kts 191°
2026-05-06 11:36 23.77917 39.14304 34953 ft 423 kts 191°
2026-05-06 11:36 23.72045 39.14030 34914 ft 421 kts 191°
2026-05-06 11:37 23.66248 39.13761 34884 ft 417 kts 191°
2026-05-06 11:37 23.60517 39.13500 34935 ft 412 kts 191°
2026-05-06 11:38 23.54788 39.13227 34946 ft 413 kts 191°
2026-05-06 11:38 23.49011 39.12951 34931 ft 417 kts 191°
2026-05-06 11:39 23.43173 39.12676 34913 ft 420 kts 191°
2026-05-06 11:39 23.37316 39.12402 34910 ft 422 kts 191°
2026-05-06 11:40 23.31460 39.12129 34924 ft 424 kts 191°
2026-05-06 11:40 23.25546 39.11853 34910 ft 426 kts 191°
2026-05-06 11:41 23.19623 39.11578 34894 ft 426 kts 191°
2026-05-06 11:41 23.13695 39.11303 34895 ft 425 kts 191°
2026-05-06 11:42 23.07828 39.11030 34892 ft 424 kts 191°
2026-05-06 11:42 23.01932 39.10756 34893 ft 423 kts 191°
2026-05-06 11:43 22.96002 39.10477 34174 ft 431 kts 191°
2026-05-06 11:43 22.93013 39.10338 33616 ft 428 kts 190°
2026-05-06 11:43 22.90046 39.10203 32971 ft 426 kts 190°
2026-05-06 11:44 22.84107 39.09927 31747 ft 429 kts 190°
2026-05-06 11:44 22.81098 39.09785 30931 ft 436 kts 189°
2026-05-06 11:44 22.78038 39.09682 30131 ft 445 kts 187°